DW1779 Weather Reports


Display with metric or nautical units.
time (UTC)temp
F
wind
direction
speed
MPH
gust
MPH
rain 1hr
in
rain 24hr
in
rain mn
in
humidity
%
barometer
mb
20260902044050 74 191 0.0 2.0 0.00 0.00 0.00 89 1017.8
20260902043550 74 164 0.0 3.0 0.00 0.00 0.00 89 1017.8
20260902043058 75 193 0.0 3.0 0.00 0.00 0.00 89 1017.8
20260902042551 75 173 0.0 3.0 0.00 0.00 0.00 88 1017.7
20260902042051 75 178 0.0 0.0 0.00 0.00 0.00 88 1017.9
20260902041550 75 185 0.0 0.0 0.00 0.00 0.00 88 1017.8
20260902041050 75 213 0.0 0.0 0.00 0.00 0.00 88 1017.8
20260902040650 75 196 0.0 0.0 0.00 0.00 0.00 88 1017.7
20260902040049 75 176 0.0 0.0 0.00 0.00 0.00 89 1017.8
20260902035546 75 166 0.0 0.0 0.00 0.00 0.00 88 1017.7
20260902035046 75 187 0.0 1.0 0.00 0.00 0.00 89 1017.7
20260902034546 75 170 0.0 1.0 0.00 0.00 0.00 88 1017.7
20260902034045 76 179 0.0 2.0 0.00 0.00 0.00 88 1017.8
20260902033545 76 177 0.0 3.0 0.00 0.00 0.00 88 1017.8
20260902033046 76 185 0.0 3.0 0.00 0.00 0.00 88 1017.8
20260902032545 76 172 0.0 4.0 0.00 0.00 0.00 88 1017.8
20260902032045 76 177 0.0 4.0 0.00 0.00 0.00 87 1017.8
20260902031545 77 169 0.0 3.0 0.00 0.00 0.00 86 1017.7
20260902031045 77 191 0.0 3.0 0.00 0.00 0.00 86 1017.7
20260902030646 77 163 0.0 1.0 0.00 0.00 0.00 86 1017.7
20260902030042 77 180 0.0 1.0 0.00 0.00 0.00 86 1017.5
20260902025542 77 157 0.0 0.0 0.00 0.00 0.00 86 1017.4
20260902025042 77 157 0.0 3.0 0.00 0.00 0.00 87 1017.3
20260902024542 76 171 0.0 3.0 0.00 0.00 0.00 87 1017.3
20260902024044 77 183 0.0 4.0 0.00 0.00 0.00 87 1017.3
20260902023544 77 136 0.0 4.0 0.00 0.00 0.00 87 1017.5
20260902023046 77 157 0.0 5.0 0.00 0.00 0.00 86 1017.4
20260902022542 77 168 0.0 2.0 0.00 0.00 0.00 86 1017.2
20260902022041 77 177 0.0 3.0 0.00 0.00 0.00 86 1017.2
20260902021540 77 165 0.0 3.0 0.00 0.00 0.00 85 1017.1
20260902021044 78 161 0.0 1.0 0.00 0.00 0.00 85 1017.1
20260902020641 78 150 0.0 2.0 0.00 0.00 0.00 84 1017.1
20260902020039 78 150 0.0 2.0 0.00 0.00 0.00 84 1017.1
20260902015539 78 180 0.0 0.0 0.00 0.00 0.00 84 1017.0
20260902015038 78 142 0.0 3.0 0.00 0.00 0.00 84 1017.1
20260902014538 78 149 0.0 4.0 0.00 0.00 0.00 84 1017.0
20260902014039 78 130 0.0 3.0 0.00 0.00 0.00 85 1016.9
20260902013538 78 164 0.0 5.0 0.00 0.00 0.00 85 1016.8
20260902013038 78 152 0.0 5.0 0.00 0.00 0.00 84 1016.8
20260902012537 78 125 0.0 3.0 0.00 0.00 0.00 84 1016.8
20260902012037 79 142 0.0 3.0 0.00 0.00 0.00 83 1016.7
20260902011550 79 165 0.0 3.0 0.00 0.00 0.00 82 1016.7
20260902011039 79 134 0.0 3.0 0.00 0.00 0.00 82 1016.6
20260902010638 80 113 0.0 3.0 0.00 0.00 0.00 81 1016.7
20260902010056 80 143 0.0 3.0 0.00 0.00 0.00 81 1016.7
20260902005556 80 166 0.0 3.0 0.00 0.00 0.00 80 1016.4
20260902005055 81 115 0.0 3.0 0.00 0.00 0.00 79 1016.5
20260902004555 82 96 0.0 3.0 0.00 0.00 0.00 77 1016.5
20260902004059 82 164 0.0 5.0 0.00 0.00 0.00 76 1016.4
20260902003556 83 160 0.0 5.0 0.00 0.00 0.00 76 1016.4
20260902003100 84 184 0.0 2.0 0.00 0.00 0.00 74 1016.4
20260902002557 84 178 0.0 3.0 0.00 0.00 0.00 73 1016.5
20260902002054 84 157 0.0 3.0 0.00 0.00 0.00 73 1016.5
20260902001558 84 152 0.0 6.0 0.00 0.00 0.00 74 1016.4
20260902001054 85 47 0.0 6.0 0.00 0.00 0.00 71 1016.4
20260902000654 86 161 1.0 6.0 0.00 0.00 0.00 70 1016.4
20260902000056 87 171 0.0 3.0 0.00 0.00 0.00 67 1016.5
20260901235552 87 180 0.0 6.0 0.00 0.00 0.00 67 1016.5
20260901235051 86 248 1.0 8.0 0.00 0.00 0.00 70 1016.5
20260901234559 86 109 1.0 4.0 0.00 0.00 0.00 71 1016.5
20260901234051 87 53 1.0 6.0 0.00 0.00 0.00 70 1016.5
20260901233551 88 97 1.0 6.0 0.00 0.00 0.00 65 1016.5
20260901233051 89 221 2.0 9.0 0.00 0.00 0.00 64 1016.6
20260901232551 89 79 2.0 9.0 0.00 0.00 0.00 65 1016.5
20260901232051 89 164 2.0 8.0 0.00 0.00 0.00 63 1016.6
20260901231608 89 106 2.0 8.0 0.00 0.00 0.00 65 1016.8
20260901231050 89 57 1.0 8.0 0.00 0.00 0.00 64 1016.7
20260901230652 88 88 2.0 7.0 0.00 0.00 0.00 64 1016.8
20260901230106 88 117 1.0 5.0 0.00 0.00 0.00 65 1016.7
20260901225551 89 113 1.0 9.0 0.00 0.00 0.00 64 1016.8
20260901225049 89 103 2.0 9.0 0.00 0.00 0.00 62 1016.8
20260901224551 90 93 2.0 8.0 0.00 0.00 0.00 63 1016.8
20260901224048 90 37 3.0 8.0 0.00 0.00 0.00 62 1016.8
20260901223552 90 64 2.0 7.0 0.00 0.00 0.00 61 1016.7
20260901223050 90 65 1.0 11.0 0.00 0.00 0.00 62 1016.8
20260901222547 90 104 0.0 11.0 0.00 0.00 0.00 62 1016.8
20260901222047 90 43 2.0 11.0 0.00 0.00 0.00 62 1016.7
20260901221609 91 87 2.0 11.0 0.00 0.00 0.00 58 1016.7
20260901221048 92 130 4.0 11.0 0.00 0.00 0.00 57 1016.7
20260901220648 92 85 4.0 10.0 0.00 0.00 0.00 55 1016.7
20260901220049 93 131 5.0 9.0 0.00 0.00 0.00 54 1016.4
20260901215542 93 91 2.0 6.0 0.00 0.00 0.00 58 1016.4
20260901215041 93 117 2.0 9.0 0.00 0.00 0.00 57 1016.3
20260901214541 92 144 1.0 9.0 0.00 0.00 0.00 59 1016.3
20260901214041 93 12 2.0 7.0 0.00 0.00 0.00 54 1016.3
20260901213541 93 247 1.0 7.0 0.00 0.00 0.00 54 1016.3
20260901213059 93 116 2.0 8.0 0.00 0.00 0.00 54 1016.4
20260901212541 93 86 1.0 8.0 0.00 0.00 0.00 52 1016.4
20260901212041 93 96 3.0 7.0 0.00 0.00 0.00 52 1016.3
20260901211541 94 110 2.0 9.0 0.00 0.00 0.00 53 1016.4
20260901211039 95 92 4.0 9.0 0.00 0.00 0.00 47 1016.4
20260901210501 95 98 3.0 10.0 0.00 0.00 0.00 48 1016.4
20260901210118 95 96 4.0 10.0 0.00 0.00 0.00 48 1016.6
20260901210002 95 92 3.0 10.0 0.00 0.00 0.00 50 1016.4
20260901205603 95 122 2.0 8.0 0.00 0.00 0.00 50 1016.6
20260901205059 96 56 2.0 7.0 0.00 0.00 0.00 47 1016.6
20260901204609 96 130 3.0 8.0 0.00 0.00 0.00 48 1016.7
20260901204054 96 124 1.0 10.0 0.00 0.00 0.00 47 1016.7
20260901203558 96 47 4.0 10.0 0.00 0.00 0.00 47 1016.7
20260901203059 95 130 1.0 13.0 0.00 0.00 0.00 50 1016.8
20260901202553 95 104 3.0 13.0 0.00 0.00 0.00 46 1016.9
20260901202056 96 138 2.0 12.0 0.00 0.00 0.00 49 1016.8
20260901201557 97 61 5.0 12.0 0.00 0.00 0.00 47 1016.9
20260901201052 96 94 3.0 10.0 0.00 0.00 0.00 47 1016.9
20260901200651 96 45 3.0 10.0 0.00 0.00 0.00 45 1017.0
20260901200117 97 84 4.0 10.0 0.00 0.00 0.00 46 1017.1
20260901195557 97 52 4.0 10.0 0.00 0.00 0.00 44 1017.1
20260901195057 97 58 0.0 9.0 0.00 0.00 0.00 46 1017.2
20260901194608 95 87 3.0 10.0 0.00 0.00 0.00 45 1017.3
20260901194059 97 59 1.0 10.0 0.00 0.00 0.00 47 1017.3
20260901193553 98 360 1.0 5.0 0.00 0.00 0.00 44 1017.4
20260901193054 97 49 2.0 4.0 0.00 0.00 0.00 43 1017.5
20260901192557 96 196 0.0 5.0 0.00 0.00 0.00 45 1017.5
20260901192054 95 313 2.0 5.0 0.00 0.00 0.00 43 1017.6
20260901191628 97 196 0.0 4.0 0.00 0.00 0.00 42 1017.6
20260901191051 96 26 0.0 4.0 0.00 0.00 0.00 49 1017.6
20260901190648 95 38 1.0 4.0 0.00 0.00 0.00 51 1017.7
20260901190058 96 355 1.0 6.0 0.00 0.00 0.00 44 1017.7
20260901185549 95 147 1.0 6.0 0.00 0.00 0.00 47 1017.7
20260901185049 93 46 1.0 4.0 0.00 0.00 0.00 54 1017.8
20260901184549 92 32 1.0 3.0 0.00 0.00 0.00 51 1017.7
20260901184048 94 78 1.0 3.0 0.00 0.00 0.00 50 1017.8
20260901183551 95 31 0.0 3.0 0.00 0.00 0.00 43 1017.9
20260901183053 95 111 1.0 5.0 0.00 0.00 0.00 42 1017.9
20260901182546 97 5 1.0 10.0 0.00 0.00 0.00 41 1018.0
20260901182046 95 284 3.0 10.0 0.00 0.00 0.00 48 1018.1
20260901181552 94 311 3.0 7.0 0.00 0.00 0.00 47 1018.2
20260901181046 94 126 0.0 2.0 0.00 0.00 0.00 46 1018.3
20260901180645 96 131 0.0 8.0 0.00 0.00 0.00 47 1018.3
20260901180049 96 299 1.0 8.0 0.00 0.00 0.00 43 1018.3
20260901175549 96 321 2.0 8.0 0.00 0.00 0.00 43 1018.4
20260901175049 96 299 3.0 5.0 0.00 0.00 0.00 44 1018.5
20260901174547 94 236 1.0 4.0 0.00 0.00 0.00 45 1018.6
20260901174049 94 263 2.0 7.0 0.00 0.00 0.00 46 1018.7
20260901173549 94 259 1.0 7.0 0.00 0.00 0.00 48 1018.7
20260901173045 95 203 2.0 6.0 0.00 0.00 0.00 46 1018.8
20260901172547 95 162 2.0 6.0 0.00 0.00 0.00 45 1018.8
20260901172045 96 259 1.0 5.0 0.00 0.00 0.00 45 1018.9
20260901171547 95 151 2.0 5.0 0.00 0.00 0.00 46 1018.9
20260901171042 95 329 1.0 4.0 0.00 0.00 0.00 45 1019.0
20260901170506 95 101 0.0 8.0 0.00 0.00 0.00 53 1019.0
20260901170007 95 360 1.0 10.0 0.00 0.00 0.00 48 1019.1
20260901165504 95 310 5.0 10.0 0.00 0.00 0.00 47 1019.2
20260901165003 93 286 3.0 9.0 0.00 0.00 0.00 48 1019.3
20260901164503 94 275 3.0 10.0 0.00 0.00 0.00 46 1019.3
20260901164000 94 271 2.0 10.0 0.00 0.00 0.00 49 1019.3
20260901163559 94 292 3.0 10.0 0.00 0.00 0.00 47 1019.4
20260901163059 94 278 4.0 10.0 0.00 0.00 0.00 48 1019.3
20260901162557 94 313 3.0 9.0 0.00 0.00 0.00 49 1019.4
20260901162056 94 306 4.0 9.0 0.00 0.00 0.00 49 1019.4
20260901161556 94 323 4.0 10.0 0.00 0.00 0.00 50 1019.4
20260901161054 94 242 3.0 10.0 0.00 0.00 0.00 51 1019.5
20260901160512 94 303 3.0 8.0 0.00 0.00 0.00 53 1019.5
20260901160013 93 265 1.0 8.0 0.00 0.00 0.00 53 1019.5
20260901155510 93 329 2.0 6.0 0.00 0.00 0.00 54 1019.6
20260901155009 92 329 2.0 8.0 0.00 0.00 0.00 54 1019.5
20260901154511 92 11 2.0 8.0 0.00 0.00 0.00 55 1019.6
20260901154005 92 19 1.0 9.0 0.00 0.00 0.00 56 1019.6
20260901153507 91 314 3.0 8.0 0.00 0.00 0.00 56 1019.7
20260901153003 91 297 3.0 8.0 0.00 0.00 0.00 56 1019.7
20260901152501 91 249 3.0 8.0 0.00 0.00 0.00 57 1019.7
20260901152103 90 208 2.0 8.0 0.00 0.00 0.00 57 1019.7
20260901151600 90 246 3.0 12.0 0.00 0.00 0.00 57 1019.8
20260901151058 90 270 1.0 12.0 0.00 0.00 0.00 59 1019.8
20260901150557 90 257 1.0 6.0 0.00 0.00 0.00 59 1019.8
20260901150109 89 269 1.0 6.0 0.00 0.00 0.00 59 1019.8
20260901145557 89 217 1.0 8.0 0.00 0.00 0.00 62 1019.9
20260901145052 89 257 1.0 10.0 0.00 0.00 0.00 62 1019.9
20260901144552 88 320 3.0 10.0 0.00 0.00 0.00 63 1019.8
20260901144049 88 180 1.0 10.0 0.00 0.00 0.00 63 1019.9
20260901143547 88 282 2.0 10.0 0.00 0.00 0.00 64 1019.9
20260901143106 87 209 1.0 7.0 0.00 0.00 0.00 65 1020.0
20260901142544 87 205 1.0 7.0 0.00 0.00 0.00 66 1020.0
20260901142042 86 264 2.0 7.0 0.00 0.00 0.00 66 1019.9
20260901141541 86 176 4.0 9.0 0.00 0.00 0.00 67 1020.1
20260901141040 85 192 4.0 9.0 0.00 0.00 0.00 67 1020.0
20260901140508 85 194 2.0 9.0 0.00 0.00 0.00 68 1020.0
20260901140006 84 285 2.0 9.0 0.00 0.00 0.00 71 1020.1
20260901135505 83 182 1.0 6.0 0.00 0.00 0.00 73 1020.2
20260901135003 83 167 1.0 10.0 0.00 0.00 0.00 73 1020.3
20260901134502 82 198 3.0 10.0 0.00 0.00 0.00 73 1020.3
20260901134100 81 169 3.0 8.0 0.00 0.00 0.00 77 1020.3
20260901133559 79 194 3.0 8.0 0.00 0.00 0.00 79 1020.2
20260901133101 79 198 1.0 6.0 0.00 0.00 0.00 81 1020.3
20260901132602 76 228 1.0 5.0 0.00 0.00 0.00 86 1020.3
20260901132057 74 257 0.0 4.0 0.00 0.00 0.00 90 1020.2
20260901131558 73 235 0.0 4.0 0.00 0.00 0.00 91 1020.3
20260901131056 72 244 0.0 4.0 0.00 0.00 0.00 92 1020.3
20260901130656 72 166 1.0 4.0 0.00 0.00 0.00 92 1020.3
20260901130100 71 200 0.0 3.0 0.00 0.00 0.00 93 1020.3
20260901125558 70 170 0.0 0.0 0.00 0.00 0.00 93 1020.1
20260901125058 70 164 0.0 2.0 0.00 0.00 0.00 93 1020.3
20260901124601 69 151 0.0 2.0 0.00 0.00 0.00 94 1020.2
20260901124056 69 149 0.0 0.0 0.00 0.00 0.00 94 1020.2
20260901123600 68 149 0.0 1.0 0.00 0.00 0.00 94 1020.1
20260901123056 68 149 0.0 2.0 0.00 0.00 0.00 94 1019.9
20260901122555 68 144 0.0 2.0 0.00 0.00 0.00 94 1020.0
20260901122054 68 161 0.0 1.0 0.00 0.00 0.00 94 1019.9
20260901121602 68 117 0.0 1.0 0.00 0.00 0.00 94 1019.9
20260901121053 67 117 0.0 1.0 0.00 0.00 0.00 94 1019.8
20260901120652 67 117 0.0 1.0 0.00 0.00 0.00 94 1019.7
20260901120052 67 117 0.0 1.0 0.00 0.00 0.00 94 1019.8
20260901115551 67 117 0.0 1.0 0.00 0.00 0.00 94 1019.8
20260901115051 67 117 0.0 1.0 0.00 0.00 0.00 94 1019.7
20260901114551 67 117 0.0 0.0 0.00 0.00 0.00 94 1019.7
20260901114049 67 112 0.0 0.0 0.00 0.00 0.00 94 1019.6
20260901113549 67 112 0.0 0.0 0.00 0.00 0.00 94 1019.4
20260901113049 67 112 0.0 0.0 0.00 0.00 0.00 94 1019.4
20260901112548 68 112 0.0 0.0 0.00 0.00 0.00 94 1019.4
20260901112048 68 112 0.0 0.0 0.00 0.00 0.00 94 1019.3
20260901111547 68 112 0.0 0.0 0.00 0.00 0.00 94 1019.4
20260901111046 68 112 0.0 0.0 0.00 0.00 0.00 94 1019.4
20260901110646 68 112 0.0 0.0 0.00 0.00 0.00 94 1019.4
20260901110051 68 112 0.0 0.0 0.00 0.00 0.00 93 1019.3
20260901105553 68 112 0.0 0.0 0.00 0.00 0.00 93 1019.2
20260901105053 68 112 0.0 0.0 0.00 0.00 0.00 93 1019.2
20260901104550 68 112 0.0 1.0 0.00 0.00 0.00 93 1019.1
20260901104048 68 112 0.0 1.0 0.00 0.00 0.00 93 1019.2
20260901103548 68 112 0.0 2.0 0.00 0.00 0.00 93 1019.1
20260901103047 68 112 0.0 2.0 0.00 0.00 0.00 93 1019.0
20260901102546 68 148 0.0 1.0 0.00 0.00 0.00 92 1019.0
20260901102046 69 147 0.0 1.0 0.00 0.00 0.00 92 1019.0
20260901101600 69 148 0.0 2.0 0.00 0.00 0.00 92 1018.9
20260901101043 69 148 0.0 2.0 0.00 0.00 0.00 92 1018.9
20260901100643 69 133 0.0 1.0 0.00 0.00 0.00 92 1018.9
20260901100100 69 127 0.0 1.0 0.00 0.00 0.00 92 1018.8
20260901095558 69 127 0.0 1.0 0.00 0.00 0.00 92 1018.8
20260901095059 69 127 0.0 1.0 0.00 0.00 0.00 92 1018.7
20260901094558 69 127 0.0 2.0 0.00 0.00 0.00 92 1018.8
20260901094058 69 127 0.0 2.0 0.00 0.00 0.00 92 1018.8
20260901093556 69 144 0.0 2.0 0.00 0.00 0.00 92 1018.6
20260901093106 69 132 0.0 2.0 0.00 0.00 0.00 91 1018.7
20260901092555 69 132 0.0 2.0 0.00 0.00 0.00 91 1018.6
20260901092056 69 136 0.0 1.0 0.00 0.00 0.00 92 1018.5
20260901091558 69 116 0.0 1.0 0.00 0.00 0.00 91 1018.5
20260901091055 70 116 0.0 2.0 0.00 0.00 0.00 91 1018.5
20260901090655 70 117 0.0 2.0 0.00 0.00 0.00 91 1018.5
20260901090058 70 120 0.0 1.0 0.00 0.00 0.00 91 1018.4
20260901085557 70 144 0.0 1.0 0.00 0.00 0.00 91 1018.4
20260901085100 70 160 0.0 1.0 0.00 0.00 0.00 91 1018.4
20260901084557 70 169 0.0 1.0 0.00 0.00 0.00 91 1018.4
20260901084056 70 157 0.0 1.0 0.00 0.00 0.00 91 1018.3
20260901083556 70 157 0.0 1.0 0.00 0.00 0.00 91 1018.4
20260901083056 70 140 0.0 1.0 0.00 0.00 0.00 91 1018.4
20260901082555 70 140 0.0 1.0 0.00 0.00 0.00 91 1018.4
20260901082056 70 132 0.0 1.0 0.00 0.00 0.00 91 1018.4
20260901081600 70 142 0.0 1.0 0.00 0.00 0.00 91 1018.3
20260901081054 70 137 0.0 1.0 0.00 0.00 0.00 91 1018.3
20260901080654 70 133 0.0 1.0 0.00 0.00 0.00 91 1018.2
20260901080145 70 127 0.0 1.0 0.00 0.00 0.00 91 1018.0
20260901075556 70 142 0.0 2.0 0.00 0.00 0.00 91 1018.1
20260901075054 70 154 0.0 2.0 0.00 0.00 0.00 90 1018.1
20260901074553 70 128 0.0 2.0 0.00 0.00 0.00 90 1018.2
20260901074054 70 139 0.0 2.0 0.00 0.00 0.00 90 1018.1
20260901073553 70 142 0.0 2.0 0.00 0.00 0.00 90 1018.2
20260901073053 71 138 0.0 2.0 0.00 0.00 0.00 89 1018.1
20260901072552 71 123 0.0 2.0 0.00 0.00 0.00 89 1018.1
20260901072056 71 153 0.0 1.0 0.00 0.00 0.00 89 1018.1
20260901071551 71 159 0.0 1.0 0.00 0.00 0.00 89 1018.1
20260901071049 71 182 0.0 1.0 0.00 0.00 0.00 89 1018.1
20260901070651 71 182 0.0 1.0 0.00 0.00 0.00 88 1018.0
20260901070114 71 132 0.0 1.0 0.00 0.00 0.00 88 1018.1
20260901065555 71 132 0.0 2.0 0.00 0.00 0.00 89 1018.0
20260901065054 71 132 0.0 2.0 0.00 0.00 0.00 89 1018.0
20260901064605 72 138 0.0 1.0 0.00 0.00 0.00 89 1018.1
20260901064052 72 209 0.0 0.0 0.00 0.00 0.00 88 1018.2
20260901063551 72 209 0.0 0.0 0.00 0.00 0.00 88 1018.2
20260901063059 72 209 0.0 0.0 0.00 0.00 0.00 87 1018.2
20260901062550 72 209 0.0 1.0 0.00 0.00 0.00 87 1018.2
20260901062049 73 209 0.0 2.0 0.00 0.00 0.00 87 1018.2
20260901061601 73 209 0.0 3.0 0.00 0.00 0.00 87 1018.2
20260901061048 73 148 0.0 3.0 0.00 0.00 0.00 86 1018.1
20260901060647 73 132 1.0 3.0 0.00 0.00 0.00 86 1018.1
20260901060051 73 111 0.0 4.0 0.00 0.00 0.00 86 1018.1
20260901055550 74 176 1.0 4.0 0.00 0.00 0.00 85 1018.1
20260901055049 74 123 0.0 3.0 0.00 0.00 0.00 84 1018.1
20260901054551 75 188 0.0 3.0 0.00 0.00 0.00 83 1018.1
20260901054049 75 180 0.0 4.0 0.00 0.00 0.00 83 1018.1
20260901053548 75 121 1.0 5.0 0.00 0.00 0.00 82 1018.1
20260901053049 75 231 1.0 5.0 0.00 0.00 0.00 82 1018.1
20260901052546 75 147 2.0 6.0 0.00 0.00 0.00 82 1018.1
20260901052044 75 117 2.0 7.0 0.00 0.00 0.00 82 1018.1
20260901051543 76 165 1.0 9.0 0.00 0.00 0.00 80 1018.0
20260901051043 76 173 2.0 9.0 0.00 0.00 0.00 80 1018.0
20260901050645 76 142 2.0 5.0 0.00 0.00 0.00 80 1017.9
20260901050041 76 125 2.0 6.0 0.00 0.00 0.00 81 1017.9
20260901045541 77 155 1.0 7.0 0.00 0.00 0.00 79 1018.1
20260901045040 77 197 1.0 7.0 0.00 0.00 0.00 79 1018.1
20260901044557 77 117 2.0 7.0 0.00 0.00 0.00 79 1018.1